Location: Days
(41.3591°N, 106.7339°W)
Time: 00:36:22
(UTC+00:00)

NOAA 19 - Visible Passes

Search period start: 28 June 2022 00:00
Search period end: 08 July 2022 00:00
Orbit: 840 x 861 km, 99.1° (Epoch: 27 June)

Date Brightness Start Highest point End Pass type
(mag) Time Alt. Az. Time Alt. Az. Time Alt. Az.
01 Jul 8.0 04:01:29 10° WSW 04:03:27 12° W 04:05:25 10° WNW visible
02 Jul 7.8 03:48:12 10° SW 03:51:24 16° W 03:54:38 10° NW visible
03 Jul 7.6 03:35:25 10° SW 03:39:24 20° W 03:43:23 10° NW visible
04 Jul 7.3 03:22:53 10° SSW 03:27:24 26° W 03:31:56 10° NW visible
05 Jul 6.9 03:10:31 10° SSW 03:15:26 33° W 03:20:21 10° NNW visible
